Showing default

SOYUZ MS-27, 63520

Orbit data source: Space-Track

SOYUZ MS-27, 63520 is a payload satellite owned by RKKE (CIS) in LEO that was launched on Tue, 08 Apr 2025 UTC via a SOYUZ-2-1A launch vehicle from the Tyuratam Missile And Space Complex (TTMTR). Payload-class satellites include a variety of spacecraft equipped with specific instruments for various scientific and technological missions. These include communications satellites like Starlink; space stations such as the ISS; scientific satellites like the Hubble; Earth observation satellites from companies like Planet Labs, Umbra, and HawkEye 360; GPS; miniature CubeSats for education and research; and military/defense satellites.

Loading next visibility...
Identifier
63520, 2025-072A
Orbit
LEO
Last TLE update
10 hours ago
Origin
Manufacturer
RKKE
Mission
Operational Civil Spaceship
Bus & Motor
7K-S A48, SA
Mass
7,152 kg wet, 2,900 kg dry
Launch date (UTC)
2025-04-08 (3 months ago)
Launch vehicle
SOYUZ-2-1A
Launch site
Tyuratam Missile And Space Complex (TTMTR)
Object type
Payload
Rocket body
Debris
Shape & HBR
Cyl + Cone + Sphere + 2 Pan, 10.6 m
Radar Cross Section
25.344 m², Large (>1 m²)

Expand to show TLE details & history

TLE from 10 hours ago
0 SOYUZ MS-27
1 63520U 25072A   25182.83204607  .00005749  00000-0  10743-3 0  9993
2 63520  51.6347 234.4916 0002352 318.4634  41.6176 15.50322094 12755
Epoch: 2025-07-01T19:58Z
TLE epoch observation values (Epoch: 2025-07-01T19:58:08.78Z)
Latitude
-0.00002°
Longitude
14.83316°
Altitude
415.331 km
Speed
7.664 km/s
True Right ascension
15h 37m 57s
True Declination
0° 00' 00"
Sunlit
Object was in full shadow at epoch
Visualization orbit readout
Latitude
-15.26364°
Longitude
-154.8572°
Altitude
420.53 km
Speed
7.659 km/s
Apparent Right ascension
04h 57m 09s
Apparent Declination
-27° 28' 37"
Sunlit
Object is in daylight
Visualization observer readout
Local Sidereal Time
17:48:09
Azimuth
44.203° NE
Elevation
-73.687°
Doppler factor
1
Orbital elements
Apogee altitude
417.892 km
Perigee altitude
414.696 km
Semi-major axis
6,794.431 km
Eccentricity
0.00024
Inclination
51.6347°
RAAN
234.4916°
Arg. of periapsis
318.4634°
True anomaly
Unknown
Mean anomaly
41.6176°
Eccentric anomaly
Unknown
Mean motion
3.87537 °/min
Orbital period
92.89 mins
BSTAR
0.00010743
Loading maneuver chart data...
Loading SW <> Apogee altitude chart data...
Loading historical data...
Loading historical data...
Loading historical data...
Loading historical data...
Loading historical data...
Loading historical data...
Loading historical data...
Other satellites on launch #72 in the year 2025 (2025-04-08 UTC)

SOYUZ MS-27 Visibility forecast

Observer location: undefined°, undefined°

Span
Click to sort rows by Start time (UTC) header in descending order
Start Az.
Max El. time (UTC)
Max El. Az.
Max El.
End time (UTC)
End Az.
5 mins2025-07-02 07:00:28.877Z254.397° W2025-07-02 07:03:28.877Z341.154° N35.405°2025-07-02 07:05:28.877Z36.322° NE
4 mins2025-07-02 11:54:28.877Z341.999° N2025-07-02 11:56:28.877Z41.194° NE24.641°2025-07-02 11:58:28.877Z83.856° E
4 mins2025-07-02 13:31:28.877Z272.023° WNW2025-07-02 13:32:28.877Z240.548° WSW29.779°2025-07-02 13:35:28.877Z158.85° S
|